TimeCST,TemperatureF,Dew PointF,Humidity,Sea Level PressureIn,VisibilityMPH,Wind Direction,Wind SpeedMPH,Gust SpeedMPH,PrecipitationIn,Events,Conditions,WindDirDegrees,DateUTC
12:02 AM,35.6,33.8,93,30.31,6.0,Calm,Calm,-,N/A,,Mostly Cloudy,0,2013-01-03 06:02:00
12:53 AM,35.1,34.0,96,30.32,6.0,Calm,Calm,-,N/A,,Mostly Cloudy,0,2013-01-03 06:53:00
1:09 AM,35.6,33.8,93,30.31,7.0,West,3.5,-,N/A,,Mostly Cloudy,280,2013-01-03 07:09:00
1:17 AM,35.6,33.8,93,30.31,6.0,Calm,Calm,-,N/A,,Scattered Clouds,0,2013-01-03 07:17:00
1:53 AM,34.0,33.1,96,30.32,6.0,Calm,Calm,-,N/A,,Clear,0,2013-01-03 07:53:00
2:53 AM,32.0,30.9,96,30.32,5.0,Calm,Calm,-,N/A,,Clear,0,2013-01-03 08:53:00
3:00 AM,32.0,30.2,93,30.32,4.0,Calm,Calm,-,N/A,,Partly Cloudy,0,2013-01-03 09:00:00
3:22 AM,32.0,30.2,93,30.33,6.0,Calm,Calm,-,N/A,,Mostly Cloudy,0,2013-01-03 09:22:00
3:31 AM,30.2,30.2,100,30.33,4.0,Calm,Calm,-,N/A,,Scattered Clouds,0,2013-01-03 09:31:00
3:53 AM,30.0,28.9,96,30.33,6.0,Calm,Calm,-,N/A,,Scattered Clouds,0,2013-01-03 09:53:00
4:03 AM,30.2,28.4,93,30.33,6.0,Calm,Calm,-,N/A,,Mostly Cloudy,0,2013-01-03 10:03:00
4:26 AM,30.2,28.4,93,30.33,6.0,Calm,Calm,-,N/A,,Partly Cloudy,0,2013-01-03 10:26:00
4:40 AM,28.4,26.6,93,30.33,2.0,Calm,Calm,-,N/A,,Partly Cloudy,0,2013-01-03 10:40:00
4:49 AM,28.4,28.4,100,30.34,5.0,Calm,Calm,-,N/A,,Clear,0,2013-01-03 10:49:00
4:53 AM,28.9,28.0,96,30.34,5.0,Calm,Calm,-,N/A,,Clear,0,2013-01-03 10:53:00
5:53 AM,28.4,26.6,93,30.35,6.0,NW,3.5,-,N/A,,Clear,310,2013-01-03 11:53:00
6:53 AM,28.9,27.0,92,30.38,5.0,Calm,Calm,-,N/A,,Clear,0,2013-01-03 12:53:00
7:11 AM,28.4,26.6,93,30.38,5.0,Calm,Calm,-,N/A,,Scattered Clouds,0,2013-01-03 13:11:00
7:25 AM,28.4,26.6,93,30.39,6.0,NNW,3.5,-,N/A,,Mostly Cloudy,330,2013-01-03 13:25:00
7:53 AM,30.0,28.9,96,30.40,3.0,NNW,4.6,-,N/A,,Mostly Cloudy,340,2013-01-03 13:53:00
8:02 AM,30.2,28.4,93,30.39,1.8,NNW,5.8,-,N/A,,Overcast,340,2013-01-03 14:02:00
8:15 AM,30.2,28.4,93,30.40,0.5,NNW,5.8,-,N/A,Fog,Light Freezing Fog,340,2013-01-03 14:15:00
8:53 AM,30.9,30.0,96,30.42,1.0,NW,6.9,-,N/A,,Overcast,320,2013-01-03 14:53:00
9:04 AM,30.2,30.2,100,30.42,3.0,NNW,5.8,-,N/A,,Mostly Cloudy,330,2013-01-03 15:04:00
9:28 AM,33.8,32.0,93,30.43,5.0,NW,6.9,-,N/A,,Partly Cloudy,320,2013-01-03 15:28:00
9:53 AM,35.1,30.9,85,30.44,8.0,NNW,6.9,-,N/A,,Clear,340,2013-01-03 15:53:00
10:53 AM,39.9,32.0,73,30.46,10.0,Variable,4.6,-,N/A,,Clear,0,2013-01-03 16:53:00
11:53 AM,41.0,30.0,65,30.42,10.0,Variable,3.5,-,N/A,,Partly Cloudy,0,2013-01-03 17:53:00
12:53 PM,44.1,30.9,60,30.37,10.0,NNE,10.4,-,N/A,,Clear,20,2013-01-03 18:53:00
1:53 PM,46.0,30.9,56,30.38,10.0,NNE,8.1,-,N/A,,Clear,30,2013-01-03 19:53:00
2:53 PM,46.9,30.9,54,30.36,10.0,Calm,Calm,-,N/A,,Clear,0,2013-01-03 20:53:00
3:53 PM,46.9,30.9,54,30.38,10.0,NW,6.9,-,N/A,,Clear,320,2013-01-03 21:53:00
4:53 PM,42.1,32.0,67,30.41,10.0,NNW,3.5,-,N/A,,Clear,330,2013-01-03 22:53:00
5:53 PM,37.9,34.0,86,30.42,10.0,North,3.5,-,N/A,,Clear,360,2013-01-03 23:53:00
6:53 PM,37.4,33.8,87,30.42,10.0,Calm,Calm,-,N/A,,Clear,0,2013-01-04 00:53:00
7:53 PM,39.0,34.0,82,30.44,10.0,NW,4.6,-,N/A,,Clear,320,2013-01-04 01:53:00
8:53 PM,39.9,33.1,77,30.45,10.0,North,3.5,-,N/A,,Clear,350,2013-01-04 02:53:00
9:53 PM,37.9,32.0,79,30.46,10.0,Calm,Calm,-,N/A,,Clear,0,2013-01-04 03:53:00
10:53 PM,34.0,30.9,89,30.46,10.0,Calm,Calm,-,N/A,,Mostly Cloudy,0,2013-01-04 04:53:00
11:53 PM,33.1,30.9,92,30.45,10.0,Calm,Calm,-,N/A,,Partly Cloudy,0,2013-01-04 05:53:00